星链-2320 (STARLINK-2320 )

导读 | 豆包AI

STARLINK-2320是美国太空探索技术公司(SpaceX)星链星座的成员,于2021年3月14日发射入轨,归属美国。它是星链互联网星座组网卫星之一,旨在为全球提供高速低延迟卫星互联网服务,截至2026年已在轨运行近5年,服务全球众多偏远地区用户,支撑星链星座的全球覆盖能力。

Basic Information
目录编号:
47866
目录名称:
STARLINK-2320
国际标识:
2021-021G
轨道中心:
EARTH
卫星名称:
星链-2320
卫星全名:
星链-2320 (STARLINK-2320 )
卫星状态:
已陨落 最后检测时间 2025-02-21
发射日期:
2021-03-14 UTC
国别 :
美国 (US)
星等 :
--
Orbit Information
数据来源 国际轨道数据
星历时间: 2025-02-21T01:04:36+0800
轨道信息已过期386天
半长轴: 6544.86km
偏心率: 0.000574
轨道倾角: 53.033°
近地点辐角 330.335°
升交点赤经 147.055°
平近点角 152.217°
近地点: 162.968km
远地点: 170.482km
周期: 87.823分钟
每日圈数: 16.396542
Detailed Information
固有亮度:
5
最大亮度:
2.5
卫星平台:
Starlink V1.0
覆盖范围:
全球
运营商:
太空探索技术公司
运营商所在国:
美国
制造商(研发单位):
太空探索技术公司
制造商所在国:
美国
使用方式:
暂无
Satellite Introduction
星链(Starlink)计划是由太空探索技术公司(SpaceX)提出的一个巨型低轨卫星互联网星座项目,计划在2019年至2024年间在太空搭建由约1.2万颗卫星组成的“星链”网络,其中1584颗将部署在地球上空550千米处的近地轨道,并从2020年开始工作。该卫星仍在工作。